When you browse on this site, cookies collect data to enhance your experience and personalize the content and advertising you see.
Visit our Privacy Policy to learn more. By continuing to use the site, you agree to this use of cookies and data.
  • In Österreich
  • Länderverzeichnis
  • Für 7 Tage
  • Wassertemperatur
  • Satellitenkarten
  • Wetterkarte
  • News
  • Widgets
  • user-avatar
    Anmelden

    Stündliche Wetter Batina

    Heute, 25 Juni, Dienstag

    Zeit Temperatur Niederschläge Wind Luftdruck Luftfeuchtigkeit
    00:00 +29°C° 0 mm 3 m/S 674 mmHg 12%
    01:00 +28°C° 0 mm 3 m/S 673 mmHg 13%
    02:00 +28°C° 0 mm 3 m/S 673 mmHg 14%
    03:00 +27°C° 0 mm 3 m/S 673 mmHg 15%
    04:00 +28°C° 0 mm 3 m/S 673 mmHg 15%
    05:00 +30°C° 0 mm 2 m/S 674 mmHg 15%
    06:00 +31°C° 0 mm 2 m/S 675 mmHg 16%
    07:00 +34°C° 0 mm 3 m/S 675 mmHg 13%
    08:00 +35°C° 0 mm 5 m/S 676 mmHg 11%
    09:00 +38°C° 0 mm 6 m/S 677 mmHg 9%
    10:00 +39°C° 0 mm 6 m/S 677 mmHg 9%
    11:00 +39°C° 0 mm 6 m/S 677 mmHg 8%
    12:00 +40°C° 0 mm 5 m/S 677 mmHg 8%
    13:00 +40°C° 0 mm 5 m/S 677 mmHg 8%
    14:00 +40°C° 0 mm 5 m/S 676 mmHg 8%
    15:00 +40°C° 0 mm 5 m/S 676 mmHg 8%
    16:00 +39°C° 0 mm 5 m/S 676 mmHg 9%
    17:00 +38°C° 0 mm 4 m/S 676 mmHg 9%
    18:00 +37°C° 0 mm 4 m/S 676 mmHg 10%
    19:00 +35°C° 0 mm 3 m/S 676 mmHg 13%
    20:00 +31°C° 0 mm 2 m/S 675 mmHg 17%
    21:00 +29°C° 0 mm 1 m/S 675 mmHg 20%
    22:00 +28°C° 0 mm 1 m/S 675 mmHg 21%
    23:00 +27°C° 0 mm 1 m/S 675 mmHg 22%

    Morgen, 26 Juni, Mittwoch

    Zeit Temperatur Niederschläge Wind Luftdruck Luftfeuchtigkeit
    00:00 +27°C° 0 mm 1 m/S 675 mmHg 24%
    01:00 +26°C° 0 mm 1 m/S 674 mmHg 24%
    02:00 +26°C° 0 mm 1 m/S 674 mmHg 25%
    03:00 +23°C° 0 mm 0 m/S 674 mmHg 25%
    04:00 +25°C° 0 mm 0 m/S 675 mmHg 23%
    05:00 +27°C° 0 mm 0 m/S 675 mmHg 21%
    06:00 +29°C° 0 mm 0 m/S 676 mmHg 20%
    07:00 +33°C° 0 mm 1 m/S 676 mmHg 17%
    08:00 +35°C° 0 mm 2 m/S 677 mmHg 14%
    09:00 +37°C° 0 mm 2 m/S 677 mmHg 11%
    10:00 +38°C° 0 mm 3 m/S 677 mmHg 10%
    11:00 +38°C° 0 mm 3 m/S 677 mmHg 10%
    12:00 +40°C° 0 mm 4 m/S 677 mmHg 10%
    13:00 +40°C° 0 mm 4 m/S 677 mmHg 10%
    14:00 +40°C° 0 mm 4 m/S 677 mmHg 9%
    15:00 +40°C° 0 mm 5 m/S 676 mmHg 9%
    16:00 +39°C° 0 mm 5 m/S 676 mmHg 10%
    17:00 +38°C° 0 mm 6 m/S 675 mmHg 11%
    18:00 +36°C° 0 mm 7 m/S 675 mmHg 12%
    19:00 +34°C° 0 mm 5 m/S 675 mmHg 16%
    20:00 +32°C° 0 mm 4 m/S 675 mmHg 21%
    21:00 +28°C° 0 mm 2 m/S 675 mmHg 25%
    22:00 +27°C° 0 mm 2 m/S 674 mmHg 27%
    23:00 +27°C° 0 mm 2 m/S 674 mmHg 28%

    übermorgen, 27 Juni, Donnerstag

    Zeit Temperatur Niederschläge Wind Luftdruck Luftfeuchtigkeit
    00:00 +26°C° 0 mm 1 m/S 674 mmHg 30%
    01:00 +25°C° 0 mm 1 m/S 674 mmHg 31%
    02:00 +24°C° 0 mm 1 m/S 673 mmHg 32%
    03:00 +24°C° 0 mm 2 m/S 673 mmHg 33%
    04:00 +25°C° 0 mm 1 m/S 674 mmHg 30%
    05:00 +27°C° 0 mm 1 m/S 674 mmHg 27%
    06:00 +26°C° 0 mm 0 m/S 674 mmHg 25%
    07:00 +29°C° 0 mm 1 m/S 675 mmHg 22%
    08:00 +31°C° 0 mm 2 m/S 675 mmHg 20%
    09:00 +33°C° 0 mm 3 m/S 676 mmHg 17%
    10:00 +34°C° 0 mm 4 m/S 676 mmHg 16%
    11:00 +35°C° 0 mm 5 m/S 676 mmHg 15%
    12:00 +36°C° 0 mm 6 m/S 676 mmHg 13%
    13:00 +38°C° 0 mm 7 m/S 675 mmHg 14%
    14:00 +38°C° 0 mm 7 m/S 675 mmHg 14%
    15:00 +38°C° 0 mm 8 m/S 674 mmHg 14%
    16:00 +35°C° 0 mm 8 m/S 674 mmHg 17%
    17:00 +34°C° 0 mm 8 m/S 673 mmHg 20%
    18:00 +33°C° 0 mm 8 m/S 673 mmHg 23%
    19:00 +30°C° 0 mm 6 m/S 673 mmHg 29%
    20:00 +28°C° 0 mm 5 m/S 673 mmHg 34%
    21:00 +26°C° 0 mm 3 m/S 673 mmHg 40%
    22:00 +25°C° 0 mm 3 m/S 673 mmHg 42%
    23:00 +25°C° 0 mm 2 m/S 673 mmHg 45%

    28 Juni, Freitag

    Zeit Temperatur Niederschläge Wind Luftdruck Luftfeuchtigkeit
    00:00 +24°C° 0 mm 2 m/S 673 mmHg 47%
    01:00 +23°C° 0 mm 2 m/S 672 mmHg 50%
    02:00 +23°C° 0 mm 2 m/S 672 mmHg 53%
    03:00 +21°C° 0 mm 2 m/S 671 mmHg 55%
    04:00 +23°C° 0 mm 1 m/S 672 mmHg 52%
    05:00 +24°C° 0 mm 1 m/S 672 mmHg 49%
    06:00 +25°C° 0 mm 1 m/S 673 mmHg 47%
    07:00 +26°C° 0 mm 1 m/S 673 mmHg 40%
    08:00 +28°C° 0 mm 2 m/S 674 mmHg 34%
    09:00 +30°C° 0 mm 2 m/S 674 mmHg 28%
    10:00 +31°C° 0 mm 3 m/S 674 mmHg 24%
    11:00 +33°C° 0 mm 3 m/S 674 mmHg 20%
    12:00 +34°C° 0 mm 3 m/S 674 mmHg 16%
    13:00 +34°C° 0 mm 4 m/S 674 mmHg 16%
    14:00 +35°C° 0 mm 4 m/S 673 mmHg 15%
    15:00 +35°C° 0 mm 4 m/S 673 mmHg 14%
    16:00 +34°C° 0 mm 5 m/S 673 mmHg 16%
    17:00 +34°C° 0 mm 6 m/S 673 mmHg 18%
    18:00 +33°C° 0 mm 7 m/S 672 mmHg 20%
    19:00 +30°C° 0 mm 6 m/S 672 mmHg 26%
    20:00 +28°C° 0 mm 4 m/S 672 mmHg 32%
    21:00 +26°C° 0 mm 3 m/S 672 mmHg 38%
    22:00 +25°C° 0 mm 3 m/S 672 mmHg 40%
    23:00 +24°C° 0 mm 2 m/S 672 mmHg 42%

    29 Juni, Samstag

    Zeit Temperatur Niederschläge Wind Luftdruck Luftfeuchtigkeit
    00:00 +24°C° 0 mm 2 m/S 671 mmHg 44%
    01:00 +23°C° 0 mm 2 m/S 671 mmHg 45%
    02:00 +22°C° 0 mm 1 m/S 671 mmHg 47%
    03:00 +22°C° 0 mm 1 m/S 670 mmHg 48%
    04:00 +23°C° 0 mm 1 m/S 671 mmHg 44%
    05:00 +22°C° 0 mm 0 m/S 672 mmHg 40%
    06:00 +24°C° 0 mm 0 m/S 672 mmHg 36%
    07:00 +27°C° 0 mm 1 m/S 673 mmHg 32%
    08:00 +29°C° 0 mm 2 m/S 673 mmHg 28%
    09:00 +31°C° 0 mm 2 m/S 674 mmHg 23%
    10:00 +33°C° 0 mm 3 m/S 674 mmHg 20%
    11:00 +34°C° 0 mm 3 m/S 674 mmHg 18%
    12:00 +35°C° 0 mm 3 m/S 674 mmHg 15%
    13:00 +36°C° 0 mm 4 m/S 674 mmHg 14%
    14:00 +36°C° 0 mm 4 m/S 674 mmHg 14%
    15:00 +36°C° 0 mm 4 m/S 673 mmHg 13%
    16:00 +36°C° 0 mm 4 m/S 673 mmHg 14%
    17:00 +35°C° 0 mm 5 m/S 673 mmHg 15%
    18:00 +35°C° 0 mm 5 m/S 673 mmHg 16%
    19:00 +33°C° 0 mm 4 m/S 673 mmHg 22%
    20:00 +29°C° 0 mm 3 m/S 673 mmHg 28%
    21:00 +27°C° 0 mm 1 m/S 673 mmHg 34%
    22:00 +26°C° 0 mm 2 m/S 672 mmHg 35%
    23:00 +26°C° 0 mm 2 m/S 672 mmHg 36%

    30 Juni, Sonntag

    Zeit Temperatur Niederschläge Wind Luftdruck Luftfeuchtigkeit
    00:00 +25°C° 0 mm 2 m/S 672 mmHg 37%
    01:00 +24°C° 0 mm 1 m/S 672 mmHg 40%
    02:00 +23°C° 0 mm 1 m/S 671 mmHg 42%
    03:00 +21°C° 0 mm 0 m/S 671 mmHg 44%
    04:00 +24°C° 0 mm 1 m/S 672 mmHg 39%
    05:00 +26°C° 0 mm 1 m/S 672 mmHg 35%
    06:00 +28°C° 0 mm 2 m/S 673 mmHg 30%
    07:00 +29°C° 0 mm 2 m/S 674 mmHg 27%
    08:00 +31°C° 0 mm 2 m/S 674 mmHg 23%
    09:00 +34°C° 0 mm 2 m/S 675 mmHg 20%
    10:00 +35°C° 0 mm 2 m/S 675 mmHg 17%
    11:00 +36°C° 0 mm 3 m/S 675 mmHg 15%
    12:00 +37°C° 0 mm 3 m/S 675 mmHg 12%
    13:00 +37°C° 0 mm 3 m/S 674 mmHg 11%
    14:00 +37°C° 0 mm 3 m/S 674 mmHg 11%
    15:00 +37°C° 0 mm 3 m/S 674 mmHg 10%
    16:00 +37°C° 0 mm 3 m/S 673 mmHg 11%
    17:00 +37°C° 0 mm 3 m/S 673 mmHg 11%
    18:00 +36°C° 0 mm 2 m/S 673 mmHg 12%
    19:00 +34°C° 0 mm 3 m/S 673 mmHg 15%
    20:00 +31°C° 0 mm 3 m/S 673 mmHg 18%
    21:00 +29°C° 0 mm 3 m/S 673 mmHg 21%
    22:00 +28°C° 0 mm 2 m/S 672 mmHg 22%
    23:00 +27°C° 0 mm 2 m/S 672 mmHg 22%
    Mehr zeigen